SCP
0 0 0 0 0 0 0 0 0 0 0 0 0 0 0 0 0 0 0 0 0 0 0 0 0 0 0 0 0 0 0 0 0 0 0 0 0 0
0 0 0 0 0 0 0 0 0 0 0 0 0 0 0 0 0 0 0 0 0 0 0 0 0 0 0 0 0 0 0 0 0 0 0 0 0 0
0 0 0 0 0 0 0 0 0 0 0 0 0 0 0 0 0 0 0 0 0 0 0 0 0 0 0 0 0 0 0 0 0 0 0 0 0 0
0 0 0 0 0 0 0 0 0 0 0 0 0 0 0 0 0 0 0 0 0 0 0 0 0 0 0 0 0 0 0 0 0 0 0 0 0 0
0 0 0 0 0 0 0 0 0 0 0 0 0 0 0 0 0 0 0 0 0 0 0 0 0 0 0 0 0 0 0 0 0 0 0 0 0 0
0 0 0 0 0 0 0 0 0 0 0 0 0 0 0 0 0 0 0 0 0 0 0 0 0 0 0 0 0 0 0 0 0 0 0 0 0 0
0 0 0 0 0 0 0 0 0 0 0 0 0 0 0 0 0 0 0 0 0 0 0 0 0 0 0 0 0 0 0 0 0 0 0 0 0 0
0 0 0 0 0 0 0 0 0 0 0 0 0 0 0 0 0 0 0 0 0 0 0 0 0 0 0 0 0 0 0 0 0 0 0 0 0 0
0 0 0 0 0 0 0 0 0 0 0 0 0 0 0 0 0 0 0 0 0 0 0 0 0 0 0 0 0 0 0 0 0 0 0 0 0 0
0 0 0 0 0 0 0 0 0 0 0 0 0 0 0 0 0 0 0 0 0 0 0 0 0 0 0 0 0 0 0 0 0 0 0 0 0 0
0 0 0 0 0 0 0 0 0 0 0 0 0 0 0 0 0 0 0 0 0 0 0 0 0 0 0 0 0 0 0 0 0 0 0 0 0 0
0 0 0 0 0 0 0 0 0 0 0 0 0 0 0 0 0 0 0 0 0 0 0 0 0 0 0 0 0 0 0 0 0 0 0 0 0 0
0 0 0 0 0 0 0 0 0 0 0 0 0 0 0 0 0 0 0 0 0 0 0 0 0 0 0 0 0 0 0 0 0 0 0 0 0 0
0 0 0 0 0 0 0 0 0 0 0 0 0 0 0 0 0 0 0 0 0 0 0 0 0 0 0 0 0 0 0 0 0 0 0 0 0 0
0 0 0 0 0 0 0 0 0 0 0 0 0 0 0 0 0 0 0 0 0 0 0 0 0 0 0 0 0 0 0 0 0 0 0 0 0 0
0 0 0 0 0 0 0 0 0 0 0 0 0 0 0 0 0 0 0 0 0 0 0 0 0 0 0 0 0 0 0 0 0 0 0 0 0 0
0 0 0 0 0 0 0 0 0 0 0 0 0 0 0 0 0 0 0 0 0 0 0 0 0 0 0 0 0 0 0 0 0 0 0 0 0 0
0 0 0 0 0 0 0 0 0 0 0 0 0 0 0 0 0 0 0 0 0 0 0 0 0 0 0 0 0 0 0 0 0 0 0 0 0 0
0 0 0 0 0 0 0 0 0 0 0 0 0 0 0 0 0 0 0 0 0 0 0 0 0 0 0 0 0 0 0 0 0 0 0 0 0 0
0 0 0 0 0 0 0 0 0 0 0 0 0 0 0 0 0 0 0 0 0 0 0 0 0 0 0 0 0 0 0 0 0 0 0 0 0 0
0 0 0 0 0 0 0 0 0 0 0 0 0 0 0 0 0 0 0 0 0 0 0 0 0 0 0 0 0 0 0 0 0 0 0 0 0 0
0 0 0 0 0 0 0 0 0 0 0 0 0 0 0 0 0 0 0 0 0 0 0 0 0 0 0 0 0 0 0 0 0 0 0 0 0 0
0 0 0 0 0 0 0 0 0 0 0 0 0 0 0 0 0 0 0 0 0 0 0 0 0 0 0 0 0 0 0 0 0 0 0 0 0 0
Wind_Speed
2 2 1 1 1 0 1 2 2 1 1 1 1 1 2 3 4 2 2 4 4 4 4 3 3 4 4 3 3 3 4 4 4 4 3 4 4 4
1 2 1 1 1 1 1 0 1 2 1 1 1 2 2 3 4 2 2 5 5 4 3 3 3 3 3 2 2 2 3 3 3 3 3 3 3 4
2 3 3 2 2 1 1 1 0 1 2 1 1 2 3 2 2 2 2 3 2 4 4 4 4 4 3 3 2 2 2 2 2 3 3 3 3 3
2 2 2 2 2 2 2 2 2 2 2 2 1 1 2 3 3 3 2 3 2 4 5 5 5 4 4 4 3 3 2 2 2 2 2 2 2 1
2 2 2 2 2 2 2 2 2 1 1 2 1 1 1 2 2 2 2 1 2 4 5 6 6 5 5 4 4 4 3 3 2 2 2 2 1 1
2 2 2 2 2 1 2 2 2 1 1 1 1 1 1 2 2 1 1 1 1 2 3 3 5 6 6 6 6 5 5 4 4 3 3 2 2 2
1 1 2 2 2 1 1 1 1 1 2 1 1 1 1 1 2 2 2 1 1 2 2 2 2 2 3 5 7 7 7 6 6 5 4 4 4 3
2 2 2 2 2 2 2 2 1 2 2 2 2 2 3 3 2 2 2 1 1 2 2 2 2 2 2 3 6 8 8 8 7 6 5 5 5 4
2 2 1 1 2 2 2 3 4 4 4 3 3 3 3 3 3 3 3 3 3 3 2 2 2 2 3 4 8 9 9 9 8 7 7 6 6 5
2 1 1 1 2 2 2 2 3 3 4 3 4 4 3 3 4 4 4 3 2 1 2 2 2 2 2 2 7 10 9 9 9 8 8 7 6 6
2 1 1 2 2 2 2 2 2 2 2 3 3 3 3 3 3 2 2 2 2 2 2 2 2 2 2 2 4 9 9 9 9 8 8 8 7 7
2 2 2 2 2 3 3 3 3 3 1 1 1 2 2 2 3 4 4 3 2 2 2 3 2 1 1 2 2 3 5 7 9 9 9 8 7 4
2 2 2 1 2 3 3 3 4 3 2 2 2 2 1 2 2 2 3 3 3 3 3 3 2 2 2 2 1 2 3 3 4 5 8 9 8 6
2 2 2 2 2 2 2 2 2 1 1 1 1 2 2 2 2 2 2 3 3 3 4 3 2 3 2 2 2 2 2 3 3 4 4 6 8 9
3 4 4 3 2 2 2 2 1 1 2 2 2 2 2 2 1 1 1 1 1 1 2 3 2 2 3 3 2 2 2 3 3 3 4 4 5 4
3 3 4 3 3 2 2 1 1 2 2 2 2 2 1 1 1 1 1 1 0 2 1 2 3 3 3 3 3 3 3 3 3 3 3 3 4 4
2 1 1 0 1 1 1 1 1 1 2 2 2 1 1 1 1 1 1 1 1 2 2 1 1 1 3 3 3 3 3 2 3 3 3 4 4 5
1 1 1 1 2 2 2 1 1 1 1 1 2 1 2 2 1 1 1 2 2 2 2 2 1 1 2 2 4 4 3 3 3 3 3 3 5 4
0 1 1 2 2 2 1 2 2 2 2 2 2 2 2 2 1 1 1 1 2 2 2 2 2 2 3 4 4 4 4 3 2 3 3 4 5 4
1 2 2 2 2 2 2 2 2 1 1 2 2 2 2 2 2 2 2 2 2 2 2 2 2 3 5 5 3 3 6 5 3 4 3 3 3 5
2 2 2 2 2 2 2 2 2 2 2 2 2 2 2 2 2 2 2 3 3 3 3 4 4 5 3 1 2 3 3 6 6 4 3 2 2 3
2 2 2 2 2 2 1 1 1 1 1 2 2 2 2 2 3 3 3 3 3 3 4 3 2 1 2 3 5 5 4 3 5 7 6 5 3 4
3 2 2 2 2 1 2 2 2 2 2 2 2 2 2 2 2 2 3 3 3 3 2 2 2 2 3 4 4 4 4 4 2 3 4 7 9 8
Wind_Direction
178 171 178 185 188 194 148 149 149 166 263 205 169 151 129 112 140 146 138 155 141 128 116 108 105 106 101 93 89 85 82 85 84 80 76 84 91 87
161 162 179 187 177 166 160 178 151 162 204 213 180 168 146 138 157 154 147 148 147 148 149 147 138 130 124 116 103 96 89 86 84 84 86 86 84 84
200 182 194 181 169 187 174 171 216 153 168 244 178 157 138 140 130 149 145 144 153 170 172 172 167 164 165 164 150 131 117 105 94 89 91 85 88 93
220 199 197 179 185 194 183 195 208 201 167 191 207 157 167 167 159 169 164 166 163 175 180 183 182 182 181 179 178 170 164 156 144 141 133 124 119 114
225 227 209 176 194 198 183 196 208 210 169 173 200 191 180 169 151 176 170 168 176 174 183 189 191 192 195 195 191 191 189 188 186 188 197 201 201 206
224 210 187 176 183 196 185 199 192 179 172 168 183 189 188 198 154 169 181 192 202 193 185 184 191 202 208 207 203 201 197 198 199 202 206 215 229 232
237 212 164 143 149 160 175 215 199 181 176 178 187 187 198 177 192 188 187 196 231 198 167 187 183 196 210 218 213 206 203 204 206 208 209 212 218 229
249 240 201 175 191 205 228 234 222 201 200 188 196 201 215 202 185 181 183 182 253 232 162 208 178 203 214 205 200 200 202 204 205 205 207 209 214 222
245 246 247 187 175 194 223 241 245 245 224 201 202 216 205 197 179 187 192 193 214 214 157 217 213 214 221 214 201 201 202 202 202 204 207 211 217 222
243 229 217 216 218 187 190 220 235 236 228 228 222 221 212 194 189 190 192 191 224 228 162 204 224 224 224 215 205 199 199 202 205 208 210 212 218 223
259 231 207 215 240 222 199 228 241 262 250 229 236 224 194 182 181 158 167 165 231 246 198 182 216 225 228 221 210 201 202 204 207 212 216 217 218 222
267 258 252 250 242 211 205 216 226 234 242 288 260 245 223 211 196 179 180 186 202 236 216 178 206 180 248 242 203 197 205 213 215 219 222 225 223 215
263 264 269 271 242 225 221 214 222 218 204 215 233 225 209 206 208 203 188 186 197 220 205 174 199 197 202 239 240 207 197 208 214 225 226 227 223 212
265 268 267 264 253 238 229 253 231 206 180 193 215 227 222 218 217 206 196 199 203 207 197 178 192 196 196 217 241 226 218 215 206 214 218 224 226 226
270 286 287 266 256 238 248 254 233 178 169 190 215 229 226 221 206 192 214 204 222 240 202 191 187 198 193 211 222 213 224 233 212 212 214 212 213 213
290 300 298 272 268 257 248 229 211 193 185 207 218 231 226 208 208 194 200 188 240 290 271 226 208 195 209 225 220 233 216 220 217 217 219 222 218 213
297 273 275 273 259 245 219 218 208 201 216 224 213 211 201 206 230 205 187 182 209 241 269 282 255 197 194 204 231 240 233 233 222 212 216 235 233 222
291 255 228 208 224 235 225 227 221 225 224 214 207 203 197 200 212 213 196 203 222 234 234 228 211 360 337 299 228 234 242 239 236 220 207 228 248 242
256 267 265 240 234 232 231 223 227 226 218 211 212 210 200 202 204 213 212 227 238 239 238 218 191 187 231 262 274 228 227 241 237 231 223 224 243 247
241 250 261 269 259 244 241 244 243 234 221 220 215 215 210 209 211 214 219 228 239 246 244 233 215 210 221 236 249 258 229 224 226 238 242 241 254 267
254 255 258 257 262 258 248 243 239 231 229 229 222 220 216 218 224 225 226 240 240 240 241 240 239 234 226 220 263 267 254 235 232 223 216 228 256 264
254 255 256 260 258 255 253 251 250 246 246 238 236 234 229 226 225 223 224 231 237 241 250 255 247 224 214 231 250 259 264 264 258 254 239 219 204 222
245 247 246 254 255 257 250 245 248 248 242 243 245 244 238 243 242 230 232 233 242 253 261 264 259 241 239 242 251 260 261 263 258 252 261 251 244 249